DW6757 Weather Reports


Display with metric or nautical units.
time (UTC)temp
F
wind
direction
speed
MPH
gust
MPH
rain 1hr
in
rain 24hr
in
rain mn
in
humidity
%
barometer
mb
20260503041504 61 0 0.0 0.0 0.00 0.00 0.00 70 1022.5
20260503041004 62 0 0.0 0.0 0.00 0.00 0.00 72 1022.4
20260503040503 62 0 0.0 0.0 0.00 0.00 0.00 71 1022.2
20260503040004 62 0 0.0 0.0 0.00 0.00 0.00 69 1022.2
20260503035504 62 0 0.0 0.0 0.00 0.00 0.00 67 1022.3
20260503035003 62 0 0.0 0.0 0.00 0.00 0.00 67 1022.2
20260503034503 62 0 0.0 0.0 0.00 0.00 0.00 67 1022.2
20260503034004 62 0 0.0 0.0 0.00 0.00 0.00 67 1022.1
20260503033504 62 0 0.0 0.0 0.00 0.00 0.00 67 1022.0
20260503033003 63 0 0.0 0.0 0.00 0.00 0.00 67 1022.0
20260503032504 63 0 0.0 0.0 0.00 0.00 0.00 67 1022.0
20260503032024 63 0 0.0 0.0 0.00 0.00 0.00 67 1022.0
20260503031504 63 0 0.0 0.0 0.00 0.00 0.00 66 1022.0
20260503031004 63 0 0.0 0.0 0.00 0.00 0.00 68 1022.0
20260503030504 63 0 0.0 0.0 0.00 0.00 0.00 67 1021.9
20260503030004 63 0 0.0 0.0 0.00 0.00 0.00 66 1021.7
20260503025504 63 0 0.0 0.0 0.00 0.00 0.00 66 1021.8
20260503025004 64 0 0.0 0.0 0.00 0.00 0.00 66 1021.8
20260503024524 64 0 0.0 0.0 0.00 0.00 0.00 65 1021.7
20260503024003 64 0 0.0 0.0 0.00 0.00 0.00 65 1021.7
20260503023503 64 0 0.0 0.0 0.00 0.00 0.00 64 1021.6
20260503023003 64 0 0.0 0.0 0.00 0.00 0.00 64 1021.5
20260503022503 64 0 0.0 0.0 0.00 0.00 0.00 62 1021.5
20260503022025 65 0 0.0 0.0 0.00 0.00 0.00 62 1021.4
20260503021524 65 0 0.0 0.0 0.00 0.00 0.00 61 1021.3
20260503021025 65 0 0.0 0.0 0.00 0.00 0.00 61 1021.1
20260503020503 65 0 0.0 0.0 0.00 0.00 0.00 62 1021.0
20260503020004 65 0 0.0 0.0 0.00 0.00 0.00 61 1021.0
20260503015503 66 0 0.0 0.0 0.00 0.00 0.00 60 1021.0
20260503015003 66 0 0.0 0.0 0.00 0.00 0.00 60 1021.0
20260503014503 66 0 0.0 0.0 0.00 0.00 0.00 59 1021.0
20260503014004 67 0 0.0 0.0 0.00 0.00 0.00 57 1021.0
20260503013503 67 0 0.0 0.0 0.00 0.00 0.00 57 1020.9
20260503013004 68 0 0.0 0.0 0.00 0.00 0.00 57 1021.0
20260503012503 68 0 0.0 0.0 0.00 0.00 0.00 56 1020.9
20260503012003 68 0 0.0 0.0 0.00 0.00 0.00 55 1020.8
20260503011504 69 0 0.0 0.0 0.00 0.00 0.00 55 1020.7
20260503011004 69 57 0.0 2.0 0.00 0.00 0.00 54 1020.7
20260503010503 69 61 1.0 4.0 0.00 0.00 0.00 54 1020.7
20260503010003 70 74 1.0 4.0 0.00 0.00 0.00 54 1020.6
20260503005504 70 68 1.0 3.0 0.00 0.00 0.00 54 1020.6
20260503005003 70 55 1.0 3.0 0.00 0.00 0.00 53 1020.5
20260503004503 71 52 2.0 4.0 0.00 0.00 0.00 52 1020.3
20260503004003 71 47 2.0 4.0 0.00 0.00 0.00 51 1020.3
20260503003504 71 55 2.0 6.0 0.00 0.00 0.00 51 1020.4
20260503003005 72 58 2.0 6.0 0.00 0.00 0.00 50 1020.5
20260503002505 72 50 2.0 4.0 0.00 0.00 0.00 50 1020.6
20260503002004 72 41 3.0 7.0 0.00 0.00 0.00 50 1020.7
20260503001504 72 36 4.0 8.0 0.00 0.00 0.00 47 1020.7
20260503001006 72 33 3.0 8.0 0.00 0.00 0.00 46 1020.6
20260503000505 73 36 3.0 9.0 0.00 0.00 0.00 46 1020.7
20260503000004 73 41 4.0 9.0 0.00 0.00 0.00 45 1020.6
20260502235505 73 36 3.0 8.0 0.00 0.00 0.00 48 1020.5
20260502235026 73 29 4.0 10.0 0.00 0.00 0.00 46 1020.5
20260502234505 73 38 4.0 11.0 0.00 0.00 0.00 46 1020.4
20260502234026 73 42 3.0 11.0 0.00 0.00 0.00 47 1020.4
20260502233505 73 29 3.0 10.0 0.00 0.00 0.00 45 1020.4
20260502233005 73 32 4.0 10.0 0.00 0.00 0.00 43 1020.3
20260502232505 73 45 5.0 10.0 0.00 0.00 0.00 44 1020.4
20260502232026 73 43 5.0 13.0 0.00 0.00 0.00 44 1020.4
20260502231505 74 32 5.0 13.0 0.00 0.00 0.00 44 1020.3
20260502231004 74 53 4.0 9.0 0.00 0.00 0.00 44 1020.3
20260502230526 74 56 4.0 11.0 0.00 0.00 0.00 45 1020.3
20260502230004 74 39 5.0 11.0 0.00 0.00 0.00 44 1020.3
20260502225505 74 63 5.0 11.0 0.00 0.00 0.00 46 1020.1
20260502225026 74 71 5.0 13.0 0.00 0.00 0.00 44 1020.1
20260502224504 74 47 5.0 13.0 0.00 0.00 0.00 44 1020.2
20260502224005 74 30 5.0 11.0 0.00 0.00 0.00 44 1020.2
20260502223525 74 31 5.0 11.0 0.00 0.00 0.00 44 1020.1
20260502223004 74 38 5.0 11.0 0.00 0.00 0.00 44 1020.1
20260502222505 74 36 5.0 11.0 0.00 0.00 0.00 45 1020.1
20260502222005 74 28 6.0 12.0 0.00 0.01 0.00 44 1020.2
20260502221505 74 28 7.0 13.0 0.00 0.01 0.00 46 1020.3
20260502221025 74 33 6.0 15.0 0.00 0.01 0.00 44 1020.4
20260502220525 74 36 4.0 15.0 0.00 0.01 0.00 45 1020.3
20260502220026 74 23 5.0 11.0 0.00 0.01 0.00 46 1020.4
20260502215504 74 29 5.0 11.0 0.00 0.01 0.00 45 1020.4
20260502215025 74 31 5.0 11.0 0.00 0.01 0.00 47 1020.3
20260502214505 74 52 5.0 13.0 0.00 0.01 0.00 46 1020.4
20260502214004 73 50 6.0 13.0 0.00 0.01 0.00 46 1020.5
20260502213505 74 25 6.0 13.0 0.00 0.01 0.00 46 1020.6
20260502213004 74 35 5.0 13.0 0.00 0.01 0.00 45 1020.5
20260502212525 74 48 5.0 13.0 0.00 0.01 0.00 47 1020.6
20260502212004 73 53 6.0 12.0 0.00 0.01 0.00 46 1020.6
20260502211504 73 52 6.0 12.0 0.00 0.01 0.00 46 1020.7
20260502211004 73 52 6.0 15.0 0.00 0.01 0.00 47 1020.7
20260502210505 73 58 5.0 15.0 0.00 0.01 0.00 47 1020.8
20260502210004 74 37 5.0 11.0 0.00 0.01 0.00 47 1020.9
20260502205504 73 26 6.0 11.0 0.00 0.01 0.00 47 1020.9
20260502205005 73 38 5.0 11.0 0.00 0.01 0.00 49 1021.0
20260502204525 73 38 5.0 12.0 0.00 0.01 0.00 50 1021.1
20260502204004 73 35 5.0 15.0 0.00 0.01 0.00 49 1021.1
20260502203504 73 43 6.0 15.0 0.00 0.01 0.00 47 1021.2
20260502203004 73 32 5.0 11.0 0.00 0.01 0.00 51 1021.2
20260502202504 73 20 4.0 10.0 0.00 0.01 0.00 51 1021.3
20260502202004 73 56 6.0 13.0 0.00 0.01 0.00 51 1021.4
20260502201504 72 56 6.0 13.0 0.00 0.01 0.00 51 1021.4
20260502201025 72 35 5.0 11.0 0.00 0.02 0.00 50 1021.5
20260502200504 72 37 7.0 17.0 0.00 0.02 0.00 47 1021.6
20260502200005 72 43 7.0 17.0 0.00 0.02 0.00 48 1021.7
20260502195504 72 46 6.0 14.0 0.00 0.02 0.00 50 1021.5
20260502195004 72 37 6.0 14.0 0.00 0.02 0.00 51 1021.6
20260502194505 72 35 6.0 13.0 0.00 0.02 0.00 50 1021.5
20260502194004 72 33 5.0 14.0 0.00 0.02 0.00 54 1021.6
20260502193525 72 30 5.0 14.0 0.00 0.02 0.00 53 1021.7
20260502193005 71 28 6.0 13.0 0.00 0.02 0.00 53 1021.7
20260502192526 71 31 6.0 13.0 0.00 0.02 0.00 54 1021.7
20260502192004 71 33 7.0 14.0 0.00 0.02 0.00 55 1021.7
20260502191525 71 40 7.0 14.0 0.00 0.02 0.00 55 1021.8
20260502191004 71 36 6.0 14.0 0.00 0.02 0.00 56 1021.8
20260502190525 71 31 6.0 14.0 0.00 0.02 0.00 54 1021.7
20260502190004 71 36 6.0 12.0 0.00 0.03 0.00 55 1021.9
20260502185504 70 46 6.0 11.0 0.00 0.03 0.00 54 1021.8
20260502185004 70 47 6.0 11.0 0.00 0.03 0.00 57 1021.9
20260502184526 70 41 6.0 12.0 0.00 0.03 0.00 58 1022.0
20260502184004 70 44 6.0 12.0 0.00 0.03 0.00 57 1022.1
20260502183504 70 41 6.0 13.0 0.00 0.03 0.00 55 1022.2
20260502183004 70 52 6.0 13.0 0.00 0.03 0.00 56 1022.3
20260502182504 70 46 6.0 11.0 0.00 0.03 0.00 56 1022.2
20260502182027 70 49 6.0 12.0 0.00 0.04 0.00 57 1022.3
20260502181504 70 52 6.0 13.0 0.00 0.04 0.00 56 1022.4
20260502181004 70 44 6.0 13.0 0.00 0.04 0.00 57 1022.5
20260502180504 70 43 6.0 13.0 0.00 0.04 0.00 56 1022.6
20260502170504 68 34 6.0 12.0 0.00 0.07 0.00 59 1023.6
20260502164004 67 43 5.0 11.0 0.00 0.09 0.00 63 1023.6
20260502163504 67 41 5.0 11.0 0.00 0.09 0.00 63 1023.7
20260502163004 66 26 5.0 12.0 0.00 0.10 0.00 65 1023.6
20260502162504 66 22 5.0 12.0 0.00 0.10 0.00 63 1023.7
20260502162026 66 25 5.0 10.0 0.00 0.11 0.00 63 1023.7
20260502161525 66 33 5.0 10.0 0.00 0.11 0.00 63 1023.7
20260502161004 66 29 5.0 13.0 0.00 0.12 0.00 63 1023.6
20260502160504 66 24 5.0 13.0 0.00 0.13 0.00 64 1023.5
20260502152026 63 26 5.0 10.0 0.00 0.19 0.00 68 1023.2
20260502151525 63 31 5.0 13.0 0.00 0.19 0.00 68 1023.0
20260502151025 63 32 4.0 13.0 0.00 0.20 0.00 69 1023.1
20260502150504 63 29 5.0 11.0 0.00 0.21 0.00 69 1023.0
20260502130505 56 8 4.0 10.0 0.00 0.50 0.00 78 1021.8
20260502123504 54 6 4.0 10.0 0.00 0.63 0.00 82 1021.1
20260502123004 54 6 4.0 10.0 0.00 0.65 0.00 83 1021.1
20260502122504 53 9 3.0 10.0 0.00 0.68 0.00 84 1021.0
20260502122004 53 5 4.0 12.0 0.00 0.70 0.00 84 1020.9
20260502121504 53 1 3.0 12.0 0.00 0.73 0.00 85 1020.8
20260502121005 53 359 4.0 12.0 0.00 0.76 0.00 85 1020.9
20260502120504 52 360 4.0 12.0 0.00 0.79 0.00 86 1020.8
20260502115525 52 358 3.0 10.0 0.00 0.85 0.00 86 1020.7
20260502115025 52 359 3.0 10.0 0.00 0.89 0.00 87 1020.6
20260502114504 52 2 3.0 9.0 0.00 0.92 0.00 87 1020.7
20260502114025 52 2 3.0 9.0 0.00 0.96 0.00 87 1020.6
20260502113504 52 3 2.0 9.0 0.00 0.99 0.00 87 1020.6
20260502113005 52 2 2.0 9.0 0.00 1.03 0.00 88 1020.6
20260502112504 52 1 2.0 8.0 0.00 1.06 0.00 88 1020.5
20260502112004 52 360 2.0 8.0 0.00 1.09 0.00 88 1020.5
20260502111525 52 1 2.0 8.0 0.00 1.12 0.00 87 1020.5
20260502111004 52 2 2.0 5.0 0.00 1.16 0.00 87 1020.4
20260502110504 52 358 2.0 6.0 0.00 1.19 0.00 87 1020.4
20260502110004 52 355 2.0 6.0 0.00 1.22 0.00 87 1020.4
20260502105504 52 358 2.0 5.0 0.00 1.26 0.00 87 1020.4
20260502105004 52 1 2.0 5.0 0.00 1.29 0.00 87 1020.4
20260502104504 53 3 2.0 8.0 0.00 1.33 0.00 87 1020.4
20260502104004 53 4 2.0 8.0 0.00 1.37 0.00 87 1020.3
20260502103504 53 8 2.0 5.0 0.00 1.41 0.00 87 1020.3
20260502103004 53 9 2.0 5.0 0.00 1.46 0.00 87 1020.2
20260502102505 52 5 2.0 7.0 0.00 1.51 0.00 87 1020.1
20260502102004 53 5 2.0 7.0 0.00 1.56 0.00 87 1020.1
20260502101525 53 8 1.0 4.0 0.00 1.61 0.00 87 1020.0
20260502101004 53 10 2.0 5.0 0.00 1.67 0.00 87 1019.9
20260502100526 53 9 2.0 8.0 0.00 1.72 0.00 87 1019.8
20260502091504 53 1 2.0 6.0 0.00 2.00 0.00 88 1019.1
20260502091004 53 3 2.0 6.0 0.00 2.00 0.00 88 1019.0
20260502090504 53 6 2.0 9.0 0.00 2.02 0.00 88 1018.9
20260502071525 54 27 2.0 5.0 0.00 2.77 0.00 87 1018.7
20260502071004 54 18 2.0 5.0 0.00 2.77 0.00 87 1018.6
20260502070504 54 14 2.0 7.0 0.00 2.77 0.00 87 1018.7
20260502070004 54 13 2.0 7.0 0.00 2.77 0.00 87 1018.7
20260502065504 54 18 2.0 5.0 0.00 2.77 0.00 87 1018.7
20260502065004 54 19 2.0 7.0 0.00 2.77 0.00 86 1018.7
20260502064504 54 15 2.0 7.0 0.00 2.77 0.00 86 1018.8
20260502064004 54 17 2.0 4.0 0.00 2.77 0.00 86 1018.9
20260502063504 54 18 2.0 6.0 0.00 2.77 0.00 86 1018.8
20260502063003 54 14 2.0 6.0 0.00 2.80 0.00 85 1018.7
20260502062503 54 13 2.0 5.0 0.00 2.86 0.00 85 1018.6
20260502062003 54 18 3.0 8.0 0.00 2.95 0.00 84 1018.5
20260502061004 55 28 4.0 11.0 0.00 3.24 0.00 84 1018.2
20260502060504 55 24 5.0 11.0 0.00 3.38 0.00 84 1018.3
20260502060004 55 22 5.0 12.0 0.00 3.38 0.00 84 1018.1
20260502055503 55 30 6.0 12.0 0.00 3.38 0.00 84 1017.8
20260502055004 55 33 5.0 12.0 0.00 3.38 0.00 83 1017.6
20260502054504 55 34 4.0 14.0 0.00 3.38 0.00 83 1018.0
20260502054024 55 27 4.0 14.0 0.00 3.39 0.00 83 1018.3
20260502053504 55 15 4.0 10.0 0.00 3.39 0.00 83 1018.5
20260502053004 55 14 4.0 11.0 0.00 3.39 0.00 83 1018.7
20260502052504 55 16 5.0 11.0 0.00 3.39 0.00 83 1018.7
20260502052024 55 18 5.0 11.0 0.00 3.39 0.00 83 1018.7
20260502051504 55 18 4.0 11.0 0.00 3.39 0.00 84 1018.7
20260502051004 55 19 4.0 11.0 0.00 3.39 0.00 84 1018.6
20260502050503 55 20 4.0 11.0 0.00 3.39 0.00 85 1018.4
20260502050004 55 18 4.0 11.0 0.00 3.39 0.00 85 1018.4
20260502045504 55 14 4.0 11.0 0.00 3.39 3.39 85 1018.3
20260502045003 55 15 3.0 10.0 0.00 3.39 3.39 85 1018.4
20260502044504 55 20 3.0 10.0 0.00 3.39 3.39 85 1018.4
20260502044004 55 13 4.0 10.0 0.00 3.39 3.39 85 1018.4
20260502043504 55 6 5.0 11.0 0.00 3.40 3.39 85 1018.4
20260502043004 55 8 6.0 13.0 0.00 3.40 3.39 84 1018.4
20260502042525 55 11 5.0 13.0 0.00 3.41 3.39 84 1018.3
20260502042003 56 12 4.0 10.0 0.00 3.41 3.39 85 1018.1